STARLINK-11227 [DTC] (60303 NORAD) Tracking and Keplerian Element Data

This shows tracking and keplerian element data for the satellite.

Feedback or suggestion? Click here.




ElementValue
Catalog60303
NameSTARLINK-11227 [DTC]
Epoch Orbit1325
Epoch Day286.81000962
Epoch Year2024
RAAN155.0441
Inclination53.1566
Eccentricity0.0001232
Argument of Perigee98.3606
Mean Anonmoly261.7554
Mean Motion15.75070172
Decay Rate0.00068507
L11 60303U 24133C 24286.81000962 .00068507 00000+0 45075-3 0 9992
L22 60303 53.1566 155.0441 0001232 98.3606 261.7554 15.75070172 13256



Live tracking and technical data element details for STARLINK-11227 [DTC] (NORAD 60303). STARLINK-11227 [DTC] can be tracked NOW for your location showing map with azimuth and elevation plus other details from your city location.







IsCatalogInMostPopularTable: catalog: 60303, numindb: 13
Update: records affected: 1



GetName: 60303 STARLINK-11227 [DTC]

Hit Count: updated at: Thu, 23 Jan 2025 16:53:36 GMT